カタログに戻る

STARLINK-5993

運用中通信VLEO
NORAD 56449·PAYLOAD·🇺🇸 United States

打ち上げ May 10, 2023 から Vandenberg Space Force Base

Loading…

次のパス (今後24時間)

TLE

最新Source: CelesTrak SupGP

元期: Sep 14, 2026, 13:37 UTC

1 56449C 23064B   26257.56784722 -.00031272  00000+0 -26211-2 0  2573
2 56449  70.0027  28.4239 0003268 265.5492  83.1829 14.98340380    18

AllMySatでSTARLINK-5993をリアルタイム追跡

Download on the App Store